TITAN 3C TRANSTAGE DEB, 8832

Orbit data source: Space-Track

TITAN 3C TRANSTAGE DEB, 8832 is space debris in GEO originally from a launch on Mon, 15 Mar 1976 UTC launched from the Air Force Eastern Test Range (AFETR). Debris objects in space refer to the collection of defunct objects orbiting the Earth. Examples of debris include non-operational satellites, rocket bodies, and fragments generated from explosions, collisions, or faulty payload assembly.

Not visible in the next 10 days
Identifier
8832, 1976-023J
Orbit
GEO
Country
Flag of USUS
Related business
Manufacturer
TRW
Mission
Spacecraft
Bus & Motor
Unknown
Mass
~100 kg wet, ~100 kg dry
Launch date (UTC)
1976-03-15 (50 years ago)
Launch vehicle
Unknown
Launch site
Air Force Eastern Test Range (AFETR)
Object type
Payload
Rocket body
Debris
Shape & HBR
Unknown shape, 1.1 m
Radar Cross Section
Medium (>0.1 m² and <1 m²)

Expand to show TLE details & history
Last TLE update: 1 day ago

TLE from 1 day ago
0 TITAN 3C TRANSTAGE DEB
1 08832U 76023J   25304.97045851 -.00000143  00000-0  00000-0 0  9991
2 08832  21.3895  45.5979 0137757  93.4364 262.6782  0.98260923115356
Epoch: 2025-10-31T23:17Z
TLE epoch observation values (Epoch: 2025-10-31T23:17:27.615Z)
Latitude
-1.97933°
Longitude
10.62524°
Altitude
36,444.051 km
Speed
3.048 km/s
True Right ascension
02h 41m 59s
True Declination
-1° 58' 38"
Sunlit
Object was in daylight at epoch
Visualization orbit readout
Latitude
Unknown
Longitude
Unknown
Altitude
Unknown
Speed
Unknown
Apparent Right ascension
Unknown
Apparent Declination
Unknown
Sunlit
N/A
Visualization observer readout
Local Sidereal Time
03:03:27
Azimuth
Unknown
Elevation
Unknown
Doppler factor
Unknown
Orbital elements
Apogee altitude
36,949.514 km
Perigee altitude
35,771.998 km
Semi-major axis
42,738.893 km
Eccentricity
0.01378
Inclination
21.3895°
RAAN
45.5979°
Arg. of periapsis
93.4364°
True anomaly
261.11611°
Mean anomaly
262.6782°
Eccentric anomaly
261.89679°
Mean motion
0.24565 °/min
Orbital period
1,465.53 mins
BSTAR
0
Loading maneuver chart data...
Computing Atmospheric mass density...
Loading historical data...
Loading historical data...
Loading historical data...
Loading historical data...
Loading historical data...
Loading historical data...
Loading historical data...

Documentation

Showing up to 5 results
|